Miscellaneous Local Product
Issued by NWS Hastings, NE

Home | Current Version | Previous Version | Text Only | Print | Product List | Glossary Off
Versions: 1 2 3 4 5 6 7 8 9 10 11 12 13 14 15 16 17 18 19 20 21 22 23 24 25 26 27 28 29 30 31 32 33 34 35 36 37 38 39 40 41 42 43 44 45 46 47 48 49 50

000
AXUS43 KGID 162102
MISGRI

GID CWA HOURLY WEATHER ROUNDUP
NATIONAL WEATHER SERVICE HASTINGS NE
400 PM CDT WED APR 16 2014

NOTE: "FAIR" INDICATES FEW OR NO CLOUDS BELOW 12,000 FEET WITH NO
SIGNIFICANT WEATHER AND/OR OBSTRUCTIONS TO VISIBILITY.

...SOUTH CENTRAL NEBRASKA...

CITY           SKY/WX    TMP DP  RH WIND       PRES   REMARKS
GRAND ISLAND   CLOUDY    46  33  60 N24G35    29.88R
HASTINGS       PTSUNNY   50  34  54 N25G33    29.87R
KEARNEY        MOSUNNY   52  36  54 N22G33    29.88R
ORD            CLOUDY    44  31  60 NW26G37   29.89R
YORK           CLOUDY    50  36  57 NW26G36   29.83R
AURORA         CLOUDY    48  35  59 NW24G31   29.85R
LEXINGTON      MOSUNNY   54  35  49 N24G31    29.89R
HOLDREGE       MOSUNNY   53  36  54 N21G30    29.88R
HEBRON         PTSUNNY   64  38  38 NW25G35   29.80R

...NEBRASKA PANHANDLE...

CITY           SKY/WX    TMP DP  RH WIND       PRES   REMARKS
CHADRON        PTSUNNY   46  35  65 NE14      29.99R
ALLIANCE       PTSUNNY   50  35  56 N18G26    29.95R
SCOTTSBLUFF    PTSUNNY   52  24  33 N22G31    29.95S
SIDNEY         PTSUNNY   54  23  30 N22G37    29.94R

...WESTERN AND NORTH CENTRAL NEBRASKA...

CITY           SKY/WX    TMP DP  RH WIND       PRES   REMARKS
VALENTINE      CLOUDY    35  29  78 N16       29.99R WCI  25
AINSWORTH      CLOUDY    36  30  79 N26G33    29.96R WCI  24
ONEILL         CLOUDY    36  27  70 NW26G38   29.92R WCI  24
BROKEN BOW     PTSUNNY   47  33  58 N26G37    29.89R
IMPERIAL       CLOUDY    53  33  46 N21G28    29.94R
NORTH PLATTE   PTSUNNY   50  34  54 N18       29.92R
MCCOOK         MOSUNNY   57  34  41 N23       29.91R

...EASTERN NEBRASKA...

CITY           SKY/WX    TMP DP  RH WIND       PRES   REMARKS
NORFOLK        LGT RAIN  39  31  72 NW28G37   29.81R WCI  28
SO SIOUX CITY  LGT RAIN  48  33  56 NW31G40   29.69R
TEKAMAH        PTSUNNY   64  32  30 W25G35    29.68R
COLUMBUS       CLOUDY    45  28  53 NW25G33   29.83R
ALBION         CLOUDY    41  32  69 N25G36    29.85R
OMAHA EPPLEY   PTSUNNY   68  27  21 SW15G33   29.67F
OFFUTT AFB     PTSUNNY   69  29  22 S21G30    29.68F
MILLARD        MOSUNNY   67  29  23 SW18G28   29.68F
LINCOLN        PTSUNNY   63  36  36 NW24G31   29.75R
NEBRASKA CITY  SUNNY     69  28  22 SW31G38   29.72S
BEATRICE       SUNNY     68  36  30 W26       29.73R
FALLS CITY     NOT AVBL

...NORTHERN KANSAS...

CITY           SKY/WX    TMP DP  RH WIND       PRES   REMARKS
GOODLAND       PTSUNNY   57  27  31 N36G44    29.87F
HILL CITY      SUNNY     64  32  30 N24G40    29.86R
PHILLIPSBURG   MOSUNNY   63  34  34 N24G33    29.85R
SMITH CENTER   PTSUNNY   59  37  44 NW24G30   29.84R
BELOIT         PTSUNNY   66  37  34 NW18G36   29.79R
HAYS           PTSUNNY   66  34  30 NW13G22   29.84S
RUSSELL        CLOUDY    68  33  27 NW15G29   29.81R
CONCORDIA      PTSUNNY   66  39  37 NW15G26   29.77R
SALINA         CLOUDY    71  30  21 SW13      29.78S
TOPEKA         MOSUNNY   68  29  23 S20G38    29.82F



USA.gov is the U.S. government's official web portal to all federal, state and local government web resources and services.